This demonstration page uses our WeatherBlox Daily Observations layout. Learn more.

Left ArrowRight Arrow

38.83388, -104.82136

Hourly Observations for January 27, 2017

Temp ( °F °C ) Dew Point ( °F °C ) Humidity (%) Winds ( mph kmh ) Pressure ( in mb ) Visibility ( mi km ) Precip ( " mm )
12:58 am 00:58 Clear 14 -10.2 8 -13.1 80 80 SSW 5 7 30.10 1019 10 16 0.00 0.00
2:58 am 02:58 Clear 13 -10.7 -3 -19.3 50 50 WNW 7 11 30.10 1019 10 16 0.00 0.00
3:58 am 03:58 Clear 12 -11.3 -1 -18.5 56 56 NW 5 7 30.09 1019 10 16 0.00 0.00
4:58 am 04:58 Clear 12 -11.2 -2 -19.1 52 52 NW 6 9 30.09 1019 10 16 0.00 0.00
5:58 am 05:58 Clear 11 -11.5 -3 -19.7 51 51 Calm 30.09 1019 10 16 0.00 0.00
6:58 am 06:58 Clear 11 -11.4 -3 -19.5 51 51 WNW 3 6 30.12 1020 10 16 0.00 0.00
7:58 am 07:58 Sunny 16 -8.9 -9 -22.5 33 33 Calm 30.13 1020 10 16 0.00 0.00
8:58 am 08:58 Sunny 18 -7.9 -3 -19.6 39 39 Calm 30.15 1021 10 16 0.02 0.51
9:58 am 09:58 Sunny 22 -5.5 0 -17.7 38 38 NE 7 11 30.13 1020 10 16 0.02 0.51
10:58 am 10:58 Sunny 24 -4.4 5 -15 44 44 ESE 6 9 30.13 1020 10 16 0.00 0.00
11:58 am 11:58 Sunny 27 -2.6 1 -17 32 32 N 7 11 30.11 1020 10 16 0.00 0.00
12:58 pm 12:58 Sunny 30 -1.2 4 -15.8 32 32 N 8 13 30.06 1018 10 16 0.00 0.00
1:58 pm 13:58 Mostly Cloudy 33 0.3 0 -17.8 25 25 NNE 15 24 30.04 1017 10 16 0.00 0.00
2:58 pm 14:58 Sunny 33 0.5 2 -16.5 27 27 N 18 30 30.04 1017 10 16 0.00 0.00
3:58 pm 15:58 Sunny 31 -0.8 4 -15.6 32 32 NNW 9 15 30.07 1018 10 16 0.00 0.00
4:58 pm 16:58 Sunny 29 -1.9 5 -15.2 36 36 NW 3 6 30.08 1019 10 16 0.00 0.00
5:58 pm 17:58 Clear 28 -2 4 -15.8 34 34 S 6 9 30.07 1018 10 16 0.00 0.00
6:58 pm 18:58 Mostly Clear 26 -3.6 9 -12.7 50 50 NW 6 9 30.06 1018 10 16 0.00 0.00
7:58 pm 19:58 Clear 26 -3.1 5 -14.8 40 40 NNW 14 22 30.02 1017 10 16 0.00 0.00
8:58 pm 20:58 Clear 25 -3.8 4 -15.8 39 39 NW 12 19 30.07 1018 10 16 0.00 0.00
9:58 pm 21:58 Clear 25 -3.7 2 -16.5 37 37 N 10 17 30.10 1019 10 16 0.00 0.00
10:58 pm 22:58 Clear 26 -3.2 3 -16.1 37 37 NNW 10 17 30.11 1020 10 16 0.00 0.00
11:58 pm 23:58 Clear 23 -4.8 5 -14.9 45 45 NW 7 11 30.12 1020 10 16 0.00 0.00

Powered by AerisWeather